Ciudad Victoria, Mexico

8:04 AM CDT on June 28, 2017 (GMT -0500)
Ciudad Victoria

Weather History for MMCV - November, 2012

Change the Weather History Date:

Sunday, November 18, 2012

  Actual Average Record
Temperature  
Mean Temperature 66 °F -  
Max Temperature 75 °F 75 °F 91 °F (1996)
Min Temperature 58 °F 54 °F 42 °F (2008)
Cooling Degree Days 2    
Growing Degree Days 16 (Base 50)    
Moisture  
Dew Point 61 °F    
Average Humidity 78    
Maximum Humidity 100    
Minimum Humidity 51    
Precipitation  
Precipitation 0.00 in - - ()
Sea Level Pressure  
Sea Level Pressure 30.21 in    
Wind  
Wind Speed 2 mph ()    
Max Wind Speed 8 mph    
Max Gust Speed -    
Visibility 5.6 miles    
Events      
Averages and records for this station are not official NWS values.
T = Trace of Precipitation, MM = Missing Value Source: Averaged Metar Reports

Daily Weather History Graph

Daily Weather History Graph

Search for Another Location

Airport or City:

Trip Planner

Search our weather history database for the weather conditions in past years. The results will help you decide how hot, cold, wet, or windy it might be!

Date:

Astronomy

Nov. 18, 2012 Rise Set
Actual Time 6:52 AM CST 5:49 PM CST
Civil Twilight 6:28 AM CST 6:13 PM CST
Nautical Twilight 6:01 AM CST 6:40 PM CST
Astronomical Twilight 5:34 AM CST 7:07 PM CST
Moon 11:27 AM CST (11/18) 11:00 PM CST (11/18)
Length of Visible Light 11h 44m
Length of Day
10h 56m
Waxing Crescent, 30% of the Moon is Illuminated
Nov 18
Waxing Crescent
Nov 20
First Quarter
Nov 28
Full
Dec 6
Last Quarter
Dec 13
New

Hourly Weather History & Observations

Time (CST) Temp. Dew Point Humidity Pressure Visibility Wind Dir Wind Speed Gust Speed Precip Events Conditions
6:19 AM 60.8 °F 60.8 °F 100% 30.36 in 2.0 mi Calm Calm - N/A   Overcast
6:40 AM 60.8 °F 60.8 °F 100% 30.23 in 2.0 mi Calm Calm - N/A   Overcast
7:00 AM 60.8 °F 60.8 °F 100% 30.23 in 0.8 mi Calm Calm - N/A   Overcast
7:41 AM 60.8 °F 60.8 °F 100% 30.23 in 1.0 mi Calm Calm - N/A   Overcast
8:46 AM 62.6 °F 62.6 °F 100% 30.37 in 1.0 mi Calm Calm - N/A   Overcast
8:50 AM 64 °F 64 °F 99% 30.29 in 6 mi Calm Calm - -   Overcast
9:40 AM 64.4 °F 64.4 °F 100% 30.24 in 5.0 mi East 4.6 mph - N/A   Mostly Cloudy
10:40 AM 68.0 °F 60.8 °F 78% 30.24 in 5.0 mi SSE 4.6 mph - N/A   Mostly Cloudy
11:48 AM 71.6 °F 60.8 °F 69% 30.23 in 5.0 mi SSE 4.6 mph - N/A   Mostly Cloudy
11:50 AM 68 °F 65 °F 86% 30.27 in 6 mi Calm Calm - -   Overcast
12:44 PM 75.2 °F 59.0 °F 57% 30.17 in 8.0 mi South 4.6 mph - N/A   Mostly Cloudy
1:43 PM 75.2 °F 57.2 °F 53% 30.13 in 10.0 mi South 4.6 mph - N/A   Mostly Cloudy
2:48 PM 78.8 °F 59.0 °F 51% 30.12 in 10.0 mi South 4.6 mph - N/A   Mostly Cloudy
2:50 PM 74 °F 65 °F 67% 30.16 in 6 mi North 2.2 mph - -   Mostly Cloudy
3:46 PM 77.0 °F 59.0 °F 54% 30.11 in 10.0 mi SSE 8.1 mph - N/A   Mostly Cloudy
4:44 PM 77.0 °F 59.0 °F 54% 30.12 in 10.0 mi South 4.6 mph - N/A   Mostly Cloudy
5:46 PM 75.2 °F 59.0 °F 57% 30.15 in 10.0 mi SSW 2.3 mph - N/A   Mostly Cloudy
5:50 PM 71 °F 67 °F 83% 30.18 in 6 mi North 4.5 mph - -   Overcast
6:40 PM 71.6 °F 60.8 °F 69% 30.16 in 8.0 mi East 3.5 mph - N/A   Mostly Cloudy
7:40 PM 69.8 °F 60.8 °F 73% 30.18 in 4.0 mi East 6.9 mph - N/A   Mostly Cloudy
8:42 PM 69.8 °F 60.8 °F 73% 30.22 in 3.0 mi SE 4.6 mph - N/A   Light Drizzle
9:04 PM 68.0 °F 62.6 °F 83% 30.21 in 5.0 mi ESE 6.9 mph - N/A   Overcast